Hourly Data Report for September 19, 2010

IQALUIT CLIMATE
NUNAVUT

63°44'50.000" N
68°32'40.000" W
33.50 m
2402592
71321
XFB

Download Data

Hourly Data (September 2010)
Hourly Data Report for September 19, 2010
TIME
LST
Temp Definition
°C
Dew Point Definition
°C
Rel Hum Definition
%
Precip. Amount Definition
mm

Wind Dir Definition
10's deg

Wind Spd Definition
km/h
Visibility Definition
km
Stn Press Definition
kPa
Hmdx Definition


Wind Chill Definition


Weather Definition


00:00 3.5 3.5 100   13 2   100.56     LegendNANA
01:00 4.0 4.0 100   18 7   100.47     LegendNANA
02:00 4.4 4.4 100   18 7   100.40     LegendNANA
03:00 4.4 4.4 100   17 6   100.33     LegendNANA
04:00 6.2 4.7 90   12 32   100.27     LegendNANA
05:00 6.5 4.4 86   12 32   100.21     LegendNANA
06:00 6.2 4.3 88   12 33   100.21     LegendNANA
07:00 6.2 6.2 100   12 30   100.16     LegendNANA
08:00 6.5 6.4 99   11 32   100.14     LegendNANA
09:00 6.8 6.8 100   11 26   100.11     LegendNANA
10:00 4.8 4.8 100   21 9   100.10     LegendNANA
11:00 4.5 4.5 100   14 13   100.10     LegendNANA
12:00 4.7 4.7 100   15 20   100.07     LegendNANA
13:00 4.7 4.7 100   15 17   100.05     LegendNANA
14:00 4.4 4.4 100   15 13   100.05     LegendNANA
15:00 4.2 4.2 100   14 7   100.06     LegendNANA
16:00 4.3 4.3 100   14 17   100.06     LegendNANA
17:00 3.7 3.7 100   13 13   100.09     LegendNANA
18:00 3.7 3.7 100   15 11   100.10     LegendNANA
19:00 3.5 3.5 100   16 7   100.10     LegendNANA
20:00 3.5 3.5 100   12 6   100.10     LegendNANA
21:00 3.6 3.6 100   13 6   100.09     LegendNANA
22:00 3.7 3.7 100     0   100.05     LegendNANA
23:00 2.9 2.9 100   14 9   100.08     LegendNANA

Notes on Data Quality.

Legend

  • E = Estimated
  • M = Missing
  • NA = Not Available*
  • [empty] = Indicates an unobserved value
Date modified: